| time (UTC) | temp F | wind direction | speed MPH | gust MPH | rain 1hr in | rain 24hr in | rain mn in | humidity % | barometer mb |
| 20260506090349 | 45 | 4 | 6.0 | 9.0 | 0.07 | 1.08 | 0.42 | 83 | 1008.8 |
| 20260506084332 | 45 | 355 | 6.0 | 8.0 | 0.11 | 1.07 | 0.41 | 83 | 1008.8 |
| 20260506083333 | 45 | 25 | 5.0 | 7.0 | 0.13 | 1.07 | 0.40 | 84 | 1008.7 |
| 20260506082332 | 45 | 21 | 2.0 | 4.0 | 0.13 | 1.05 | 0.39 | 84 | 1009.1 |
| 20260506080530 | 46 | 351 | 7.0 | 10.0 | 0.13 | 1.01 | 0.35 | 84 | 1008.8 |
| 20260506072731 | 47 | 7 | 5.0 | 8.0 | 0.11 | 0.92 | 0.26 | 84 | 1008.4 |
| 20260506071732 | 47 | 340 | 3.0 | 8.0 | 0.10 | 0.90 | 0.24 | 83 | 1008.5 |
| 20260506070731 | 47 | 14 | 4.0 | 4.0 | 0.11 | 0.89 | 0.23 | 84 | 1008.4 |
| 20260506061831 | 47 | 21 | 5.0 | 6.0 | 0.06 | 0.80 | 0.14 | 84 | 1008.7 |
| 20260506060832 | 48 | 7 | 5.0 | 6.0 | 0.05 | 0.78 | 0.12 | 84 | 1008.8 |
| 20260506043034 | 49 | 10 | 3.0 | 4.0 | 0.08 | 0.70 | 0.04 | 83 | 1009.7 |
| 20260506042033 | 49 | 4 | 5.0 | 7.0 | 0.08 | 0.69 | 0.02 | 84 | 1009.8 |
| 20260506041033 | 49 | 8 | 4.0 | 5.0 | 0.07 | 0.67 | 0.01 | 84 | 1009.8 |
| 20260506040044 | 50 | 26 | 6.0 | 9.0 | 0.07 | 0.66 | 0.00 | 84 | 1009.8 |
| 20260506035133 | 50 | 24 | 5.0 | 8.0 | 0.09 | 0.65 | 0.65 | 84 | 1009.9 |
| 20260506033234 | 50 | 58 | 4.0 | 5.0 | 0.09 | 0.62 | 0.62 | 83 | 1009.9 |
| 20260506033134 | 50 | 37 | 3.0 | 4.0 | 0.09 | 0.62 | 0.62 | 83 | 1010.1 |
| 20260506031233 | 50 | 18 | 2.0 | 4.0 | 0.16 | 0.60 | 0.60 | 83 | 1010.3 |
| 20260506030250 | 50 | 22 | 1.0 | 1.0 | 0.17 | 0.59 | 0.59 | 83 | 1010.9 |
| 20260506030133 | 50 | 360 | 0.0 | 2.0 | 0.17 | 0.59 | 0.59 | 83 | 1011.0 |
| 20260506025232 | 50 | 297 | 2.0 | 4.0 | 0.14 | 0.56 | 0.56 | 82 | 1011.0 |
| 20260506024251 | 50 | 2 | 2.0 | 4.0 | 0.14 | 0.54 | 0.54 | 84 | 1010.5 |
| 20260506023335 | 50 | 360 | 3.0 | 4.0 | 0.19 | 0.53 | 0.53 | 83 | 1010.0 |
| 20260506023234 | 50 | 345 | 3.0 | 4.0 | 0.19 | 0.53 | 0.53 | 84 | 1010.0 |
| 20260506022234 | 50 | 8 | 4.0 | 6.0 | 0.14 | 0.48 | 0.48 | 83 | 1009.9 |
| 20260506021235 | 51 | 356 | 3.0 | 4.0 | 0.12 | 0.44 | 0.44 | 83 | 1010.1 |
| 20260506020233 | 50 | 12 | 3.0 | 5.0 | 0.11 | 0.42 | 0.42 | 84 | 1009.9 |
| 20260506015233 | 51 | 13 | 7.0 | 8.0 | 0.12 | 0.42 | 0.42 | 83 | 1009.6 |
| 20260506014232 | 51 | 356 | 3.0 | 5.0 | 0.10 | 0.40 | 0.40 | 83 | 1009.7 |
| 20260506013251 | 51 | 360 | 2.0 | 3.0 | 0.04 | 0.34 | 0.34 | 83 | 1009.7 |
| 20260506012334 | 51 | 5 | 2.0 | 4.0 | 0.04 | 0.34 | 0.34 | 82 | 1009.6 |
| 20260506005433 | 52 | 6 | 2.0 | 5.0 | 0.04 | 0.30 | 0.30 | 83 | 1009.5 |
| 20260506003434 | 52 | 345 | 3.0 | 4.0 | 0.10 | 0.30 | 0.30 | 83 | 1009.3 |
| 20260506002435 | 52 | 337 | 2.0 | 5.0 | 0.24 | 0.30 | 0.30 | 83 | 1009.4 |
| 20260506001433 | 52 | 359 | 4.0 | 6.0 | 0.30 | 0.30 | 0.30 | 83 | 1009.4 |
| 20260506000434 | 52 | 22 | 3.0 | 4.0 | 0.28 | 0.28 | 0.28 | 82 | 1009.3 |
| 20260505235531 | 52 | 22 | 2.0 | 3.0 | 0.27 | 0.27 | 0.26 | 82 | 1009.6 |
| 20260505234535 | 53 | 9 | 2.0 | 4.0 | 0.24 | 0.24 | 0.24 | 81 | 1009.8 |
| 20260505232534 | 55 | 338 | 6.0 | 10.0 | 0.08 | 0.08 | 0.06 | 79 | 1010.0 |
| 20260505231536 | 56 | 355 | 6.0 | 8.0 | 0.00 | 0.00 | 0.00 | 78 | 1008.9 |
| 20260505230535 | 59 | 360 | 4.0 | 5.0 | 0.00 | 0.00 | 0.00 | 79 | 1008.9 |
| 20260505224537 | 59 | 315 | 3.0 | 5.0 | 0.00 | 0.00 | 0.00 | 78 | 1009.0 |
| 20260505223533 | 59 | 315 | 2.0 | 3.0 | 0.00 | 0.00 | 0.00 | 78 | 1009.1 |
| 20260505222534 | 59 | 21 | 2.0 | 4.0 | 0.00 | 0.00 | 0.00 | 78 | 1009.2 |
| 20260505221534 | 60 | 339 | 2.0 | 3.0 | 0.00 | 0.00 | 0.00 | 78 | 1009.3 |
| 20260505215634 | 60 | 322 | 2.0 | 5.0 | 0.00 | 0.00 | 0.00 | 77 | 1009.3 |
| 20260505214634 | 60 | 19 | 3.0 | 6.0 | 0.00 | 0.00 | 0.00 | 77 | 1009.3 |
| 20260505213732 | 61 | 304 | 2.0 | 4.0 | 0.00 | 0.00 | 0.00 | 75 | 1009.3 |
| 20260505212831 | 62 | 339 | 6.0 | 10.0 | 0.00 | 0.00 | 0.00 | 74 | 1009.2 |
| 20260505212732 | 62 | 322 | 7.0 | 10.0 | 0.00 | 0.00 | 0.00 | 73 | 1009.3 |
| 20260505211734 | 62 | 315 | 0.0 | 1.0 | 0.00 | 0.00 | 0.00 | 73 | 1009.0 |
| 20260505210734 | 63 | 225 | 0.0 | 0.0 | 0.00 | 0.00 | 0.00 | 70 | 1009.0 |
| 20260505205734 | 64 | 325 | 0.0 | 1.0 | 0.00 | 0.00 | 0.00 | 67 | 1009.0 |
| 20260505204750 | 65 | 244 | 3.0 | 7.0 | 0.00 | 0.00 | 0.00 | 64 | 1009.3 |
| 20260505203832 | 65 | 338 | 0.0 | 1.0 | 0.00 | 0.00 | 0.00 | 63 | 1008.7 |
| 20260505202848 | 65 | 247 | 0.0 | 0.0 | 0.00 | 0.00 | 0.00 | 63 | 1008.8 |
| 20260505201933 | 66 | 292 | 0.0 | 2.0 | 0.00 | 0.00 | 0.00 | 62 | 1008.7 |
| 20260505200933 | 65 | 180 | 1.0 | 1.0 | 0.00 | 0.00 | 0.00 | 62 | 1008.7 |
| 20260505195932 | 65 | 202 | 0.0 | 1.0 | 0.00 | 0.00 | 0.00 | 62 | 1008.8 |
| 20260505194934 | 65 | 266 | 1.0 | 5.0 | 0.00 | 0.00 | 0.00 | 62 | 1009.0 |
| 20260505194032 | 66 | 208 | 3.0 | 6.0 | 0.00 | 0.00 | 0.00 | 61 | 1009.0 |
| 20260505193051 | 66 | 76 | 0.0 | 3.0 | 0.00 | 0.00 | 0.00 | 61 | 1009.0 |
| 20260505192033 | 65 | 261 | 1.0 | 3.0 | 0.00 | 0.00 | 0.00 | 62 | 1009.2 |
| 20260505191035 | 65 | 231 | 2.0 | 5.0 | 0.00 | 0.00 | 0.00 | 62 | 1009.3 |
| 20260505190050 | 65 | 177 | 2.0 | 5.0 | 0.00 | 0.00 | 0.00 | 62 | 1009.7 |
| 20260505185148 | 65 | 228 | 3.0 | 8.0 | 0.00 | 0.00 | 0.00 | 62 | 1009.8 |
| 20260505184234 | 65 | 278 | 2.0 | 5.0 | 0.00 | 0.00 | 0.00 | 60 | 1010.0 |
| 20260505183331 | 65 | 174 | 4.0 | 8.0 | 0.00 | 0.00 | 0.00 | 60 | 1009.9 |
| 20260505182336 | 66 | 226 | 4.0 | 9.0 | 0.00 | 0.00 | 0.00 | 59 | 1009.7 |
| 20260505181331 | 66 | 296 | 1.0 | 3.0 | 0.00 | 0.00 | 0.00 | 58 | 1009.4 |
| 20260505180333 | 67 | 288 | 2.0 | 5.0 | 0.00 | 0.00 | 0.00 | 57 | 1009.4 |
| 20260505174334 | 67 | 277 | 3.0 | 5.0 | 0.00 | 0.00 | 0.00 | 56 | 1009.2 |
| 20260505173334 | 67 | 274 | 2.0 | 4.0 | 0.00 | 0.00 | 0.00 | 56 | 1009.1 |
| 20260505172433 | 67 | 304 | 3.0 | 9.0 | 0.00 | 0.00 | 0.00 | 58 | 1009.1 |
| 20260505171432 | 67 | 223 | 2.0 | 7.0 | 0.00 | 0.00 | 0.00 | 58 | 1009.0 |
| 20260505171334 | 67 | 175 | 3.0 | 5.0 | 0.00 | 0.00 | 0.00 | 58 | 1009.0 |
| 20260505170334 | 67 | 220 | 4.0 | 7.0 | 0.00 | 0.00 | 0.00 | 57 | 1009.0 |
| 20260505165348 | 69 | 204 | 4.0 | 5.0 | 0.00 | 0.00 | 0.00 | 55 | 1009.0 |
| 20260505164332 | 69 | 226 | 4.0 | 6.0 | 0.00 | 0.00 | 0.00 | 55 | 1008.9 |
| 20260505164233 | 69 | 187 | 5.0 | 9.0 | 0.00 | 0.00 | 0.00 | 55 | 1008.8 |
| 20260505163234 | 69 | 218 | 6.0 | 13.0 | 0.00 | 0.00 | 0.00 | 54 | 1008.8 |
| 20260505162332 | 69 | 176 | 9.0 | 15.0 | 0.00 | 0.00 | 0.00 | 55 | 1008.6 |
| 20260505161431 | 69 | 201 | 3.0 | 6.0 | 0.00 | 0.00 | 0.00 | 54 | 1008.6 |
| 20260505160434 | 69 | 234 | 4.0 | 8.0 | 0.00 | 0.00 | 0.00 | 55 | 1008.5 |
| 20260505152531 | 66 | 277 | 3.0 | 8.0 | 0.00 | 0.00 | 0.00 | 56 | 1008.8 |
| 20260505151533 | 67 | 238 | 9.0 | 21.0 | 0.00 | 0.00 | 0.00 | 56 | 1008.6 |
| 20260505150533 | 66 | 233 | 3.0 | 5.0 | 0.00 | 0.00 | 0.00 | 56 | 1008.6 |
| 20260505125032 | 62 | 177 | 4.0 | 5.0 | 0.00 | 0.00 | 0.00 | 66 | 1008.5 |
| 20260505124032 | 62 | 292 | 0.0 | 1.0 | 0.00 | 0.00 | 0.00 | 66 | 1008.3 |
| 20260505122050 | 61 | 200 | 4.0 | 10.0 | 0.00 | 0.00 | 0.00 | 66 | 1007.7 |
| 20260505121133 | 62 | 199 | 6.0 | 11.0 | 0.00 | 0.00 | 0.00 | 64 | 1007.8 |
| 20260505120134 | 62 | 202 | 3.0 | 7.0 | 0.00 | 0.00 | 0.00 | 63 | 1007.8 |
| 20260505115133 | 63 | 217 | 4.0 | 10.0 | 0.00 | 0.00 | 0.00 | 63 | 1008.0 |
| 20260505114135 | 63 | 190 | 3.0 | 5.0 | 0.00 | 0.00 | 0.00 | 63 | 1007.8 |
| 20260505113232 | 63 | 203 | 5.0 | 7.0 | 0.00 | 0.00 | 0.00 | 63 | 1007.9 |
| 20260505112250 | 63 | 208 | 3.0 | 7.0 | 0.00 | 0.00 | 0.00 | 63 | 1007.6 |
| 20260505111249 | 63 | 193 | 4.0 | 6.0 | 0.00 | 0.00 | 0.00 | 61 | 1007.4 |
| 20260505095333 | 63 | 177 | 5.0 | 9.0 | 0.00 | 0.00 | 0.00 | 61 | 1006.7 |
| 20260505094335 | 64 | 219 | 6.0 | 12.0 | 0.00 | 0.00 | 0.00 | 61 | 1006.7 |
| 20260505093431 | 63 | 179 | 7.0 | 11.0 | 0.00 | 0.00 | 0.00 | 61 | 1006.4 |
| 20260505092433 | 63 | 184 | 4.0 | 6.0 | 0.00 | 0.00 | 0.00 | 62 | 1006.4 |
| 20260505091333 | 63 | 184 | 5.0 | 7.0 | 0.00 | 0.00 | 0.00 | 62 | 1006.3 |